CAPE
0 0 0 0 0 0 0 0 0 0 0 0 0 0 0 0 0 0 0 0 0 0
0 0 0 0 0 0 0 0 0 0 0 0 0 0 0 0 0 0 0 0 0 0
0 0 0 0 0 0 0 0 0 0 0 0 0 0 0 0 0 0 0 0 0 0
0 0 0 0 0 0 0 0 0 0 0 0 0 0 0 0 0 0 0 0 0 0
0 0 0 0 0 0 0 0 0 0 0 0 0 0 0 0 0 0 0 0 0 0
0 0 0 0 0 0 0 0 0 0 0 0 0 0 0 0 0 0 0 0 0 0
0 0 0 0 0 0 0 0 0 0 0 0 0 0 0 0 0 0 0 0 0 0
0 0 0 0 0 0 0 0 0 0 0 0 0 0 0 0 0 0 0 0 0 0
0 0 0 0 0 0 0 0 0 0 0 0 0 0 0 0 0 0 0 0 0 0
0 0 0 0 0 0 0 0 0 0 0 0 0 0 0 0 0 0 0 0 0 0
0 0 0 0 0 0 0 0 0 0 0 0 0 0 0 0 0 0 0 0 0 0
0 0 0 0 0 0 0 0 0 0 0 0 0 0 0 0 0 0 0 0 0 0
0 0 0 0 0 0 0 0 0 0 0 0 0 0 0 0 0 0 0 0 0 0
0 0 0 0 0 0 0 0 0 0 0 0 0 0 0 0 0 0 0 0 0 0
CIN
0 0 0 0 0 0 0 0 0 0 0 0 0 0 0 0 0 0 0 0 0 0
0 0 0 0 0 0 0 0 0 0 0 0 0 0 0 0 0 0 0 0 0 0
0 0 0 0 0 0 0 0 0 0 0 0 0 0 0 0 0 0 0 0 0 0
0 0 0 0 0 0 0 0 0 0 0 0 0 0 0 0 0 0 0 0 0 0
0 0 0 0 0 0 0 0 0 0 0 0 0 0 0 0 0 0 0 0 0 0
0 0 0 0 0 0 0 0 0 0 0 0 0 0 0 0 0 0 0 0 0 0
0 0 0 0 0 0 0 0 0 0 0 0 0 0 0 0 0 0 0 0 0 0
0 0 0 0 0 0 0 0 0 0 0 0 0 0 0 0 0 0 0 0 0 0
0 0 0 0 0 0 0 0 0 0 0 0 0 0 0 0 0 0 0 0 0 0
0 0 0 0 0 0 0 0 0 0 0 0 0 0 0 0 0 0 0 0 0 0
0 0 0 0 0 0 0 0 0 0 0 0 0 0 0 0 0 0 0 0 0 0
0 0 0 0 0 0 0 0 0 0 0 0 0 0 0 0 0 0 0 0 0 0
0 0 0 0 0 0 0 0 0 0 0 0 0 0 0 0 0 0 0 0 0 0
0 0 0 0 0 0 0 0 0 0 0 0 0 0 0 0 0 0 0 0 0 0
Wind_Speed
12 13 14 14 15 16 17 18 18 17 18 19 20 20 20 21 22 22 23 23 22 23
13 15 15 16 17 19 18 19 19 19 20 21 21 22 22 23 23 23 24 24 24 24
16 17 17 18 19 20 21 21 22 22 23 23 24 24 23 24 24 25 25 26 26 27
16 17 18 20 21 22 23 23 24 24 24 25 25 25 26 26 27 27 28 28 29 30
15 17 18 20 21 21 22 23 24 24 25 25 26 26 27 28 28 29 30 31 32 33
17 18 19 20 21 22 23 23 24 24 25 26 26 27 27 28 29 30 32 33 35 36
17 18 19 19 21 21 22 23 24 25 25 27 27 28 30 31 32 34 35 36 37 38
17 18 19 20 22 23 24 25 26 27 28 29 30 31 33 34 35 36 38 38 38 38
18 19 21 22 23 25 26 27 29 30 31 33 33 35 36 37 38 38 39 41 41 41
19 21 22 24 25 27 29 30 31 33 34 36 37 38 39 40 40 41 41 41 42 42
21 23 24 26 28 29 31 33 34 36 37 38 38 40 41 42 41 41 41 42 42 43
22 25 26 29 30 31 33 35 36 37 38 39 40 41 41 42 42 43 43 42 41 42
23 26 28 30 32 33 35 37 38 39 39 39 41 41 41 41 41 45 45 44 43 42
25 28 29 32 34 36 38 39 41 42 41 41 40 40 40 41 42 43 44 43 43 41
Wind_Direction
315 316 320 325 326 326 328 329 332 333 334 334 334 334 335 334 334 334 333 332 331 329
312 314 318 322 325 324 327 328 329 328 327 328 328 328 327 327 327 328 328 326 326 325
312 315 319 321 321 322 323 325 324 323 323 324 324 324 324 323 324 323 323 323 322 321
319 321 322 322 323 324 326 325 324 324 323 323 322 323 322 321 321 320 319 319 318 317
329 329 328 328 330 331 330 330 328 327 326 325 324 323 322 320 320 319 318 318 317 315
331 330 330 331 332 333 333 333 334 333 331 329 328 327 326 324 322 320 319 317 316 315
337 338 339 340 340 341 341 339 338 336 334 332 330 328 326 323 321 319 318 317 316 315
341 342 341 341 340 340 339 337 335 332 330 329 327 325 323 321 319 317 316 316 316 316
340 340 339 338 337 336 334 332 331 329 327 325 324 322 320 319 317 316 315 314 314 315
338 337 336 335 334 332 331 330 328 327 325 322 321 320 319 318 317 315 314 314 313 313
334 334 334 333 331 329 328 327 325 324 322 321 321 320 319 318 316 315 314 314 313 312
332 331 330 329 328 328 326 325 324 323 322 321 320 321 320 319 317 315 314 315 315 314
331 330 328 327 326 325 324 323 323 322 323 323 322 322 322 322 320 317 316 316 315 315
329 328 328 327 326 324 323 322 322 321 322 322 324 324 323 323 320 319 317 317 316 317